Tracking 18957 objects as of 23-Jan-2018
HD Live streaming from Space Station
objects crossing your sky now

FENGYUN 1C DEB

Track FENGYUN 1C DEB now!
10-day predictions


NORAD ID: 39113
Int'l Code: 1999-025EWA
Perigee: 842.7 km
Apogee: 910.6 km
Inclination: 99.0 °
Period: 102.3 minutes
Semi major axis: 7247 km
RCS: 0.003 m2 (small)
Launch date: May 10, 1999
Source: People's Republic of China (PRC)
Launch site: Taiyaun Space Center, China (TSC)

Note: This is SATELLITE DEBRIS
aabbcc
Your satellite tracking list
Your tracking list is empty




NASA's NSSDC Master Catalog

Two Line Element Set (TLE):
1 39113U 99025EWA 18021.45987643  .00000450  00000-0  29350-3 0  9991
2 39113  99.0316 108.8349 0046866 187.7943 172.2502 14.07045676254885
Source of the keplerian elements: AFSPC